Time,TemperatureF,DewpointF,PressureIn,WindDirection,WindDirectionDegrees,WindSpeedMPH,WindSpeedGustMPH,Humidity,HourlyPrecipIn,Conditions,Clouds,dailyrainin,SoftwareType,DateUTC
2013-09-13 00:07:00,71.8,69.0,29.65,WSW,253,8.0,9.0,90,0.00,,,0.00,weatherlink.com 1.10,2013-09-13 04:07:00,
2013-09-13 00:22:00,71.7,69.0,29.65,West,264,6.0,9.0,90,0.00,,,0.00,weatherlink.com 1.10,2013-09-13 04:22:00,
2013-09-13 00:38:00,71.6,69.0,29.64,West,261,4.0,9.0,90,0.00,,,0.00,weatherlink.com 1.10,2013-09-13 04:38:00,
2013-09-13 00:53:00,71.6,69.0,29.63,SW,231,5.0,7.0,90,0.00,,,0.00,weatherlink.com 1.10,2013-09-13 04:53:00,
2013-09-13 01:08:00,71.5,69.0,29.62,West,281,4.0,6.0,90,0.00,,,0.00,weatherlink.com 1.10,2013-09-13 05:08:00,
2013-09-13 01:23:00,71.1,68.0,29.62,WNW,283,5.0,6.0,90,0.00,,,0.00,weatherlink.com 1.10,2013-09-13 05:23:00,
2013-09-13 01:38:00,70.8,68.0,29.61,West,276,4.0,8.0,90,0.00,,,0.00,weatherlink.com 1.10,2013-09-13 05:38:00,
2013-09-13 01:54:00,70.7,68.0,29.60,WNW,298,5.0,6.0,91,0.00,,,0.00,weatherlink.com 1.10,2013-09-13 05:54:00,
2013-09-13 02:08:00,70.7,68.0,29.60,West,274,3.0,5.0,91,0.00,,,0.00,weatherlink.com 1.10,2013-09-13 06:08:00,
2013-09-13 02:23:00,70.7,68.0,29.60,West,278,6.0,8.0,91,0.00,,,0.00,weatherlink.com 1.10,2013-09-13 06:23:00,
2013-09-13 02:38:00,70.6,68.0,29.59,WNW,293,7.0,10.0,90,0.00,,,0.00,weatherlink.com 1.10,2013-09-13 06:38:00,
2013-09-13 02:53:00,70.5,67.0,29.59,WNW,289,8.0,10.0,88,0.00,,,0.00,weatherlink.com 1.10,2013-09-13 06:53:00,
2013-09-13 03:08:00,70.5,67.0,29.59,West,264,6.0,10.0,89,0.00,,,0.00,weatherlink.com 1.10,2013-09-13 07:08:00,
2013-09-13 03:23:00,70.5,67.0,29.58,NW,306,3.0,8.0,89,0.00,,,0.00,weatherlink.com 1.10,2013-09-13 07:23:00,
2013-09-13 03:38:00,70.4,67.0,29.59,NW,309,2.0,5.0,89,0.00,,,0.00,weatherlink.com 1.10,2013-09-13 07:38:00,
2013-09-13 03:53:00,70.3,67.0,29.59,West,268,5.0,7.0,89,0.00,,,0.00,weatherlink.com 1.10,2013-09-13 07:53:00,
2013-09-13 04:08:00,69.8,67.0,29.59,WNW,292,4.0,8.0,90,0.02,,,0.02,weatherlink.com 1.10,2013-09-13 08:08:00,
2013-09-13 04:23:00,69.6,67.0,29.59,NW,307,4.0,6.0,90,0.02,,,0.02,weatherlink.com 1.10,2013-09-13 08:23:00,
2013-09-13 04:38:00,69.0,66.0,29.60,WNW,302,6.0,9.0,89,0.03,,,0.03,weatherlink.com 1.10,2013-09-13 08:38:00,
2013-09-13 04:53:00,68.7,66.0,29.59,NW,304,2.0,5.0,90,0.04,,,0.04,weatherlink.com 1.10,2013-09-13 08:53:00,
2013-09-13 05:08:00,68.6,65.0,29.59,NW,307,1.0,3.0,89,0.03,,,0.05,weatherlink.com 1.10,2013-09-13 09:08:00,
2013-09-13 05:23:00,68.6,66.0,29.59,WSW,240,1.0,2.0,90,0.03,,,0.05,weatherlink.com 1.10,2013-09-13 09:23:00,
2013-09-13 05:38:00,68.8,66.0,29.59,West,267,3.0,3.0,90,0.01,,,0.05,weatherlink.com 1.10,2013-09-13 09:38:00,
2013-09-13 05:53:00,68.9,66.0,29.60,West,265,1.0,3.0,90,0.01,,,0.05,weatherlink.com 1.10,2013-09-13 09:53:00,
2013-09-13 06:08:00,69.0,66.0,29.60,West,275,1.0,3.0,90,0.00,,,0.05,weatherlink.com 1.10,2013-09-13 10:08:00,
2013-09-13 06:23:00,69.0,66.0,29.60,WNW,283,1.0,4.0,91,0.00,,,0.05,weatherlink.com 1.10,2013-09-13 10:23:00,
2013-09-13 06:38:00,68.9,66.0,29.60,WNW,283,2.0,4.0,91,0.00,,,0.05,weatherlink.com 1.10,2013-09-13 10:38:00,
2013-09-13 06:53:00,68.9,66.0,29.61,West,281,4.0,5.0,90,0.00,,,0.05,weatherlink.com 1.10,2013-09-13 10:53:00,
2013-09-13 07:08:00,68.9,66.0,29.61,West,269,2.0,5.0,90,0.00,,,0.05,weatherlink.com 1.10,2013-09-13 11:08:00,
2013-09-13 07:23:00,69.0,66.0,29.61,WNW,288,3.0,5.0,91,0.00,,,0.05,weatherlink.com 1.10,2013-09-13 11:23:00,
2013-09-13 07:38:00,69.0,66.0,29.61,WNW,295,5.0,5.0,90,0.00,,,0.05,weatherlink.com 1.10,2013-09-13 11:38:00,
2013-09-13 07:53:00,69.3,66.0,29.61,West,281,6.0,7.0,90,0.00,,,0.05,weatherlink.com 1.10,2013-09-13 11:53:00,
2013-09-13 08:08:00,69.6,66.0,29.61,NW,324,2.0,7.0,88,0.00,,,0.05,weatherlink.com 1.10,2013-09-13 12:08:00,
2013-09-13 08:23:00,69.6,65.0,29.62,WNW,295,6.0,7.0,86,0.00,,,0.05,weatherlink.com 1.10,2013-09-13 12:23:00,
2013-09-13 08:38:00,69.7,65.0,29.61,NW,304,8.0,11.0,85,0.00,,,0.05,weatherlink.com 1.10,2013-09-13 12:38:00,
2013-09-13 08:53:00,69.8,65.0,29.61,WNW,294,6.0,9.0,85,0.00,,,0.05,weatherlink.com 1.10,2013-09-13 12:53:00,
2013-09-13 09:08:00,69.6,65.0,29.61,WNW,300,9.0,13.0,84,0.00,,,0.05,weatherlink.com 1.10,2013-09-13 13:08:00,
2013-09-13 09:23:00,69.7,63.0,29.61,WNW,295,9.0,14.0,79,0.00,,,0.05,weatherlink.com 1.10,2013-09-13 13:23:00,
2013-09-13 09:38:00,70.0,64.0,29.61,WNW,293,3.0,14.0,80,0.00,,,0.05,weatherlink.com 1.10,2013-09-13 13:38:00,
2013-09-13 09:53:00,70.4,64.0,29.61,NW,320,6.0,13.0,79,0.00,,,0.05,weatherlink.com 1.10,2013-09-13 13:53:00,
2013-09-13 10:08:00,70.8,63.0,29.60,WNW,302,8.0,9.0,77,0.00,,,0.05,weatherlink.com 1.10,2013-09-13 14:08:00,
2013-09-13 10:23:00,71.1,63.0,29.61,WNW,302,7.0,10.0,76,0.00,,,0.05,weatherlink.com 1.10,2013-09-13 14:23:00,
2013-09-13 10:38:00,70.9,63.0,29.62,WNW,286,10.0,14.0,76,0.00,,,0.05,weatherlink.com 1.10,2013-09-13 14:38:00,
2013-09-13 10:53:00,70.9,62.0,29.62,WNW,283,12.0,15.0,74,0.00,,,0.05,weatherlink.com 1.10,2013-09-13 14:53:00,
2013-09-13 11:08:00,71.2,62.0,29.62,WNW,299,6.0,16.0,73,0.00,,,0.05,weatherlink.com 1.10,2013-09-13 15:08:00,
2013-09-13 11:24:00,70.9,61.0,29.63,WNW,298,5.0,14.0,72,0.00,,,0.05,weatherlink.com 1.10,2013-09-13 15:24:00,
2013-09-13 11:39:00,70.5,61.0,29.63,WNW,287,9.0,16.0,73,0.00,,,0.05,weatherlink.com 1.10,2013-09-13 15:39:00,
2013-09-13 11:54:00,70.2,61.0,29.63,WNW,284,12.0,18.0,73,0.00,,,0.05,weatherlink.com 1.10,2013-09-13 15:54:00,
2013-09-13 12:09:00,69.9,61.0,29.63,West,279,16.0,17.0,74,0.00,,,0.05,weatherlink.com 1.10,2013-09-13 16:09:00,
2013-09-13 12:24:00,69.7,61.0,29.63,WNW,294,4.0,12.0,73,0.00,,,0.05,weatherlink.com 1.10,2013-09-13 16:24:00,
2013-09-13 12:39:00,69.7,61.0,29.63,WNW,288,8.0,14.0,74,0.00,,,0.05,weatherlink.com 1.10,2013-09-13 16:39:00,
2013-09-13 12:54:00,69.7,61.0,29.63,WNW,292,12.0,13.0,75,0.00,,,0.05,weatherlink.com 1.10,2013-09-13 16:54:00,
2013-09-13 13:09:00,69.8,61.0,29.62,NW,319,4.0,12.0,73,0.00,,,0.05,weatherlink.com 1.10,2013-09-13 17:09:00,
2013-09-13 13:24:00,70.3,61.0,29.62,WNW,300,9.0,11.0,73,0.00,,,0.05,weatherlink.com 1.10,2013-09-13 17:24:00,
2013-09-13 13:39:00,70.4,61.0,29.61,WNW,302,4.0,10.0,71,0.00,,,0.05,weatherlink.com 1.10,2013-09-13 17:39:00,
2013-09-13 13:54:00,70.8,61.0,29.61,NW,316,6.0,9.0,70,0.00,,,0.05,weatherlink.com 1.10,2013-09-13 17:54:00,
2013-09-13 14:09:00,71.5,60.0,29.61,NW,307,8.0,13.0,68,0.00,,,0.05,weatherlink.com 1.10,2013-09-13 18:09:00,
2013-09-13 14:24:00,72.5,60.0,29.60,NW,315,7.0,12.0,65,0.00,,,0.05,weatherlink.com 1.10,2013-09-13 18:24:00,
2013-09-13 14:39:00,73.2,61.0,29.61,NW,316,9.0,12.0,65,0.00,,,0.05,weatherlink.com 1.10,2013-09-13 18:39:00,
2013-09-13 14:54:00,73.9,60.0,29.60,NNW,340,13.0,13.0,62,0.00,,,0.05,weatherlink.com 1.10,2013-09-13 18:54:00,
2013-09-13 15:09:00,74.2,59.0,29.60,NW,307,8.0,13.0,59,0.00,,,0.05,weatherlink.com 1.10,2013-09-13 19:09:00,
2013-09-13 15:24:00,74.7,59.0,29.60,WNW,295,5.0,12.0,58,0.00,,,0.05,weatherlink.com 1.10,2013-09-13 19:24:00,
2013-09-13 15:39:00,74.8,60.0,29.60,NW,312,7.0,11.0,60,0.00,,,0.05,weatherlink.com 1.10,2013-09-13 19:39:00,
2013-09-13 15:54:00,72.9,60.0,29.61,WNW,297,11.0,17.0,65,0.00,,,0.05,weatherlink.com 1.10,2013-09-13 19:54:00,
2013-09-13 16:09:00,73.7,61.0,29.61,NW,305,5.0,10.0,65,0.00,,,0.05,weatherlink.com 1.10,2013-09-13 20:09:00,
2013-09-13 16:24:00,73.5,60.0,29.61,WNW,295,13.0,17.0,63,0.00,,,0.05,weatherlink.com 1.10,2013-09-13 20:24:00,
2013-09-13 16:39:00,72.7,61.0,29.62,NW,304,13.0,19.0,66,0.00,,,0.05,weatherlink.com 1.10,2013-09-13 20:39:00,
2013-09-13 16:54:00,73.0,60.0,29.63,NW,304,8.0,19.0,64,0.00,,,0.05,weatherlink.com 1.10,2013-09-13 20:54:00,
2013-09-13 17:09:00,72.9,60.0,29.63,NW,323,10.0,19.0,64,0.00,,,0.05,weatherlink.com 1.10,2013-09-13 21:09:00,
2013-09-13 17:24:00,72.2,61.0,29.64,North,349,8.0,15.0,67,0.00,,,0.05,weatherlink.com 1.10,2013-09-13 21:24:00,
2013-09-13 17:39:00,70.9,60.0,29.65,NNE,31,9.0,15.0,69,0.00,,,0.05,weatherlink.com 1.10,2013-09-13 21:39:00,
2013-09-13 17:54:00,70.4,59.0,29.66,NNW,328,7.0,18.0,67,0.00,,,0.05,weatherlink.com 1.10,2013-09-13 21:54:00,
2013-09-13 18:09:00,70.0,58.0,29.67,North,349,9.0,15.0,66,0.00,,,0.05,weatherlink.com 1.10,2013-09-13 22:09:00,
2013-09-13 18:24:00,69.4,59.0,29.68,North,4,11.0,17.0,69,0.00,,,0.05,weatherlink.com 1.10,2013-09-13 22:24:00,
2013-09-13 18:39:00,69.1,59.0,29.69,NNW,344,6.0,12.0,69,0.00,,,0.05,weatherlink.com 1.10,2013-09-13 22:39:00,
2013-09-13 18:54:00,69.2,59.0,29.69,NNW,338,6.0,11.0,70,0.00,,,0.05,weatherlink.com 1.10,2013-09-13 22:54:00,
2013-09-13 19:09:00,69.2,57.0,29.70,NW,323,10.0,14.0,66,0.00,,,0.05,weatherlink.com 1.10,2013-09-13 23:09:00,
2013-09-13 19:24:00,68.9,57.0,29.71,NW,319,7.0,15.0,67,0.00,,,0.05,weatherlink.com 1.10,2013-09-13 23:24:00,
2013-09-13 19:39:00,68.4,55.0,29.71,NW,314,6.0,18.0,62,0.00,,,0.05,weatherlink.com 1.10,2013-09-13 23:39:00,
2013-09-13 19:54:00,67.9,54.0,29.73,NW,313,9.0,15.0,62,0.00,,,0.05,weatherlink.com 1.10,2013-09-13 23:54:00,
2013-09-13 20:09:00,67.4,54.0,29.73,WNW,298,13.0,16.0,63,0.00,,,0.05,weatherlink.com 1.10,2013-09-14 00:09:00,
2013-09-13 20:24:00,66.7,53.0,29.74,NW,311,13.0,18.0,62,0.00,,,0.05,weatherlink.com 1.10,2013-09-14 00:24:00,
2013-09-13 20:39:00,66.1,54.0,29.75,WNW,293,11.0,16.0,65,0.00,,,0.05,weatherlink.com 1.10,2013-09-14 00:39:00,
2013-09-13 20:55:00,65.5,53.0,29.75,NW,304,11.0,19.0,65,0.00,,,0.05,weatherlink.com 1.10,2013-09-14 00:55:00,
2013-09-13 21:10:00,64.7,53.0,29.75,NW,316,13.0,16.0,66,0.00,,,0.05,weatherlink.com 1.10,2013-09-14 01:10:00,
2013-09-13 21:25:00,64.3,53.0,29.76,NW,308,10.0,17.0,66,0.00,,,0.05,weatherlink.com 1.10,2013-09-14 01:25:00,
2013-09-13 21:40:00,63.8,53.0,29.77,NW,311,10.0,15.0,67,0.00,,,0.05,weatherlink.com 1.10,2013-09-14 01:40:00,
2013-09-13 21:55:00,63.4,52.0,29.77,NW,305,9.0,13.0,67,0.00,,,0.05,weatherlink.com 1.10,2013-09-14 01:55:00,
2013-09-13 22:10:00,63.2,53.0,29.78,WNW,300,12.0,15.0,69,0.00,,,0.05,weatherlink.com 1.10,2013-09-14 02:10:00,
2013-09-13 22:25:00,62.8,52.0,29.78,WNW,303,8.0,12.0,68,0.00,,,0.05,weatherlink.com 1.10,2013-09-14 02:25:00,
2013-09-13 22:40:00,62.4,52.0,29.78,WNW,296,10.0,15.0,69,0.00,,,0.05,weatherlink.com 1.10,2013-09-14 02:40:00,
2013-09-13 22:55:00,62.0,52.0,29.79,NW,304,8.0,12.0,69,0.00,,,0.05,weatherlink.com 1.10,2013-09-14 02:55:00,
2013-09-13 23:10:00,61.7,52.0,29.79,WNW,297,13.0,14.0,71,0.00,,,0.05,weatherlink.com 1.10,2013-09-14 03:10:00,
2013-09-13 23:25:00,61.5,52.0,29.79,NW,309,8.0,15.0,72,0.00,,,0.05,weatherlink.com 1.10,2013-09-14 03:25:00,
2013-09-13 23:40:00,61.0,52.0,29.79,NW,317,9.0,16.0,72,0.00,,,0.05,weatherlink.com 1.10,2013-09-14 03:40:00,
2013-09-13 23:55:00,60.7,52.0,29.79,NW,314,7.0,14.0,72,0.00,,,0.05,weatherlink.com 1.10,2013-09-14 03:55:00,